Time,TemperatureF,DewpointF,PressureIn,WindDirection,WindDirectionDegrees,WindSpeedMPH,WindSpeedGustMPH,Humidity,HourlyPrecipIn,Conditions,Clouds,dailyrainin,SolarRadiationWatts/m^2,SoftwareType,DateUTC
2013-02-18 00:00:00,45.8,28.7,30.33,North,0,2.0,5.0,51,0.00,,---,0.00,0.00,VWS V14.01,2013-02-18 05:00:00,
2013-02-18 00:08:00,45.6,28.0,30.33,West,271,1.0,6.0,51,0.00,,,0.00,0,weatherlink.com 1.10,2013-02-18 05:08:00,
2013-02-18 00:23:00,45.6,27.0,30.33,North,360,2.0,4.0,49,0.00,,,0.00,0,weatherlink.com 1.10,2013-02-18 05:23:00,
2013-02-18 00:30:00,45.4,28.4,30.33,North,0,2.0,6.0,51,0.00,,---,0.00,0.00,VWS V14.01,2013-02-18 05:30:00,
2013-02-18 00:38:00,45.3,28.0,30.33,NNW,332,2.0,4.0,51,0.00,,,0.00,0,weatherlink.com 1.10,2013-02-18 05:38:00,
2013-02-18 00:53:00,45.2,28.0,30.33,NE,46,2.0,6.0,51,0.00,,,0.00,0,weatherlink.com 1.10,2013-02-18 05:53:00,
2013-02-18 01:08:00,45.0,28.0,30.33,NNW,336,1.0,6.0,52,0.00,,,0.00,0,weatherlink.com 1.10,2013-02-18 06:08:00,
2013-02-18 01:23:00,45.1,27.0,30.32,WSW,255,2.0,5.0,50,0.00,,,0.00,0,weatherlink.com 1.10,2013-02-18 06:23:00,
2013-02-18 01:30:00,45.1,27.6,30.33,NNE,22,2.0,6.0,50,0.00,,---,0.00,0.00,VWS V14.01,2013-02-18 06:30:00,
2013-02-18 01:38:00,45.1,27.0,30.32,NNE,13,3.0,7.0,50,0.00,,,0.00,0,weatherlink.com 1.10,2013-02-18 06:38:00,
2013-02-18 01:53:00,45.2,28.0,30.32,West,276,2.0,5.0,51,0.00,,,0.00,0,weatherlink.com 1.10,2013-02-18 06:53:00,
2013-02-18 02:00:00,45.2,28.6,30.32,NNE,22,2.0,7.0,52,0.00,,---,0.00,0.00,VWS V14.01,2013-02-18 07:00:00,
2013-02-18 02:08:00,45.2,29.0,30.32,NNE,24,3.0,5.0,53,0.00,,,0.00,0,weatherlink.com 1.10,2013-02-18 07:08:00,
2013-02-18 02:23:00,45.0,28.0,30.32,NE,43,2.0,5.0,52,0.00,,,0.00,0,weatherlink.com 1.10,2013-02-18 07:23:00,
2013-02-18 02:30:00,45.0,28.5,30.31,North,0,2.0,5.0,52,0.00,,---,0.00,0.00,VWS V14.01,2013-02-18 07:30:00,
2013-02-18 02:39:00,45.0,29.0,30.31,NW,314,2.0,5.0,54,0.00,,,0.00,0,weatherlink.com 1.10,2013-02-18 07:39:00,
2013-02-18 02:53:00,44.9,29.0,30.31,South,186,3.0,4.0,55,0.00,,,0.00,0,weatherlink.com 1.10,2013-02-18 07:53:00,
2013-02-18 03:00:00,44.9,29.7,30.31,NNE,22,2.0,5.0,55,0.00,,---,0.00,0.00,VWS V14.01,2013-02-18 08:00:00,
2013-02-18 03:08:00,45.2,30.0,30.30,NNE,33,1.0,4.0,55,0.00,,,0.00,0,weatherlink.com 1.10,2013-02-18 08:08:00,
2013-02-18 03:24:00,45.1,30.0,30.30,North,355,3.0,6.0,57,0.00,,,0.00,0,weatherlink.com 1.10,2013-02-18 08:24:00,
2013-02-18 03:30:00,45.0,31.1,30.30,North,0,2.0,6.0,58,0.00,,---,0.00,0.00,VWS V14.01,2013-02-18 08:30:00,
2013-02-18 03:38:00,45.3,32.0,30.30,NNE,17,1.0,5.0,59,0.00,,,0.00,0,weatherlink.com 1.10,2013-02-18 08:38:00,
2013-02-18 03:54:00,45.5,32.0,30.30,NNE,12,2.0,5.0,60,0.00,,,0.00,0,weatherlink.com 1.10,2013-02-18 08:54:00,
2013-02-18 04:00:00,45.6,32.9,30.29,North,0,2.0,5.0,61,0.00,,---,0.00,0.00,VWS V14.01,2013-02-18 09:00:00,
2013-02-18 04:08:00,45.6,32.0,30.30,North,355,1.0,5.0,59,0.00,,,0.00,0,weatherlink.com 1.10,2013-02-18 09:08:00,
2013-02-18 04:23:00,45.3,32.0,30.30,NE,43,2.0,5.0,59,0.00,,,0.00,0,weatherlink.com 1.10,2013-02-18 09:23:00,
2013-02-18 04:30:00,45.2,31.3,30.30,North,0,2.0,5.0,58,0.00,,---,0.00,0.00,VWS V14.01,2013-02-18 09:30:00,
2013-02-18 04:39:00,45.0,31.0,30.30,NNW,341,1.0,5.0,58,0.00,,,0.00,0,weatherlink.com 1.10,2013-02-18 09:39:00,
2013-02-18 04:53:00,44.8,30.0,30.30,NW,313,1.0,4.0,57,0.00,,,0.00,0,weatherlink.com 1.10,2013-02-18 09:53:00,
2013-02-18 05:00:00,44.7,30.4,30.31,North,0,2.0,5.0,57,0.00,,---,0.00,0.00,VWS V14.01,2013-02-18 10:00:00,
2013-02-18 05:08:00,44.5,30.0,30.30,NNE,13,2.0,6.0,58,0.00,,,0.00,0,weatherlink.com 1.10,2013-02-18 10:08:00,
2013-02-18 05:24:00,44.5,32.0,30.31,North,349,3.0,4.0,62,0.00,,,0.00,0,weatherlink.com 1.10,2013-02-18 10:24:00,
2013-02-18 05:30:00,44.5,32.7,30.30,NW,315,2.0,6.0,63,0.00,,---,0.00,0.00,VWS V14.01,2013-02-18 10:30:00,
2013-02-18 05:38:00,44.6,33.0,30.31,NW,319,2.0,7.0,63,0.00,,,0.00,0,weatherlink.com 1.10,2013-02-18 10:38:00,
2013-02-18 05:53:00,44.7,33.0,30.31,NNW,340,2.0,5.0,64,0.00,,,0.00,0,weatherlink.com 1.10,2013-02-18 10:53:00,
2013-02-18 06:00:00,44.7,33.3,30.31,NW,315,2.0,7.0,64,0.00,,---,0.00,0.00,VWS V14.01,2013-02-18 11:00:00,
2013-02-18 06:08:00,44.7,33.0,30.31,NNW,337,3.0,5.0,64,0.00,,,0.00,0,weatherlink.com 1.10,2013-02-18 11:08:00,
2013-02-18 06:23:00,44.7,33.0,30.31,NW,316,3.0,5.0,65,0.00,,,0.00,0,weatherlink.com 1.10,2013-02-18 11:23:00,
2013-02-18 06:30:00,44.8,34.2,30.31,NW,315,2.0,5.0,66,0.00,,---,0.00,0.00,VWS V14.01,2013-02-18 11:30:00,
2013-02-18 06:38:00,44.9,35.0,30.31,West,279,1.0,4.0,68,0.00,,,0.00,0,weatherlink.com 1.10,2013-02-18 11:38:00,
2013-02-18 06:54:00,45.3,36.0,30.31,WNW,284,3.0,6.0,71,0.00,,,0.00,0,weatherlink.com 1.10,2013-02-18 11:54:00,
2013-02-18 07:00:00,45.5,36.7,30.31,NNW,338,2.0,6.0,71,0.00,,---,0.00,1.00,VWS V14.01,2013-02-18 12:00:00,
2013-02-18 07:09:00,45.7,37.0,30.31,WNW,295,2.0,4.0,72,0.00,,,0.00,12,weatherlink.com 1.10,2013-02-18 12:09:00,
2013-02-18 07:24:00,46.0,37.0,30.32,NW,326,3.0,5.0,72,0.00,,,0.00,23,weatherlink.com 1.10,2013-02-18 12:24:00,
2013-02-18 07:30:00,46.0,37.5,30.32,WNW,292,2.0,5.0,72,0.00,,---,0.00,18.00,VWS V14.01,2013-02-18 12:30:00,
2013-02-18 07:39:00,47.3,38.0,30.32,ENE,77,1.0,4.0,70,0.00,,,0.00,77,weatherlink.com 1.10,2013-02-18 12:39:00,
2013-02-18 08:00:00,49.3,38.8,30.32,NNE,22,2.0,8.0,67,0.00,,---,0.00,87.00,VWS V14.01,2013-02-18 13:00:00,
2013-02-18 08:09:00,50.1,39.0,30.32,NE,46,2.0,8.0,67,0.00,,,0.00,54,weatherlink.com 1.10,2013-02-18 13:09:00,
2013-02-18 08:24:00,50.9,40.0,30.32,WSW,250,2.0,5.0,66,0.00,,,0.00,65,weatherlink.com 1.10,2013-02-18 13:24:00,
2013-02-18 08:30:00,51.8,40.8,30.32,NNW,338,2.0,8.0,66,0.00,,---,0.00,148.00,VWS V14.01,2013-02-18 13:30:00,
2013-02-18 08:39:00,57.5,49.0,30.32,West,279,5.0,10.0,73,0.00,,,0.00,367,weatherlink.com 1.10,2013-02-18 13:39:00,
2013-02-18 08:54:00,59.1,44.0,30.33,West,270,5.0,9.0,58,0.00,,,0.00,95,weatherlink.com 1.10,2013-02-18 13:54:00,
2013-02-18 09:00:00,58.3,45.8,30.33,WNW,292,4.0,10.0,63,0.00,,---,0.00,290.00,VWS V14.01,2013-02-18 14:00:00,
2013-02-18 09:09:00,60.3,45.0,30.33,NW,319,5.0,6.0,57,0.00,,,0.00,529,weatherlink.com 1.10,2013-02-18 14:09:00,
2013-02-18 09:24:00,63.3,46.0,30.33,WNW,286,5.0,8.0,53,0.00,,,0.00,105,weatherlink.com 1.10,2013-02-18 14:24:00,
2013-02-18 09:30:00,63.2,47.3,30.33,West,270,3.0,7.0,56,0.00,,---,0.00,458.00,VWS V14.01,2013-02-18 14:30:00,
2013-02-18 09:39:00,65.2,47.0,30.33,WNW,285,8.0,13.0,52,0.00,,,0.00,673,weatherlink.com 1.10,2013-02-18 14:39:00,
2013-02-18 09:54:00,66.1,47.0,30.33,WSW,247,5.0,9.0,50,0.00,,,0.00,687,weatherlink.com 1.10,2013-02-18 14:54:00,
2013-02-18 10:00:00,66.0,47.4,30.33,West,270,5.0,13.0,51,0.00,,---,0.00,659.00,VWS V14.01,2013-02-18 15:00:00,
2013-02-18 10:10:00,66.0,47.0,30.34,West,273,8.0,10.0,51,0.00,,,0.00,232,weatherlink.com 1.10,2013-02-18 15:10:00,
2013-02-18 10:24:00,63.9,46.0,30.34,WSW,257,5.0,8.0,53,0.00,,,0.00,229,weatherlink.com 1.10,2013-02-18 15:24:00,
2013-02-18 10:30:00,64.8,46.8,30.34,West,270,6.0,11.0,52,0.00,,---,0.00,518.00,VWS V14.01,2013-02-18 15:30:00,
2013-02-18 10:39:00,65.9,45.0,30.34,WSW,246,4.0,11.0,48,0.00,,,0.00,735,weatherlink.com 1.10,2013-02-18 15:39:00,
2013-02-18 10:54:00,66.8,47.0,30.34,WSW,258,4.0,9.0,50,0.00,,,0.00,856,weatherlink.com 1.10,2013-02-18 15:54:00,
2013-02-18 11:00:00,67.1,46.8,30.35,West,270,5.0,11.0,48,0.00,,---,0.00,731.00,VWS V14.01,2013-02-18 16:00:00,
2013-02-18 11:24:00,64.8,47.0,30.34,South,183,9.0,13.0,53,0.00,,,0.00,338,weatherlink.com 1.10,2013-02-18 16:24:00,
2013-02-18 11:30:00,64.5,48.5,30.34,West,270,6.0,15.0,56,0.00,,---,0.00,322.00,VWS V14.01,2013-02-18 16:30:00,
2013-02-18 11:40:00,64.8,48.0,30.34,WSW,258,5.0,10.0,55,0.00,,,0.00,452,weatherlink.com 1.10,2013-02-18 16:40:00,
2013-02-18 11:55:00,66.3,47.0,30.34,South,187,6.0,14.0,50,0.00,,,0.00,684,weatherlink.com 1.10,2013-02-18 16:55:00,
2013-02-18 12:00:00,66.8,49.1,30.34,WSW,248,6.0,14.0,53,0.00,,---,0.00,530.00,VWS V14.01,2013-02-18 17:00:00,
2013-02-18 12:10:00,67.8,48.0,30.34,WSW,253,4.0,13.0,50,0.00,,,0.00,947,weatherlink.com 1.10,2013-02-18 17:10:00,
2013-02-18 12:25:00,67.3,49.0,30.34,West,267,9.0,12.0,52,0.00,,,0.00,1211,weatherlink.com 1.10,2013-02-18 17:25:00,
2013-02-18 12:30:00,67.1,48.4,30.34,WSW,248,6.0,13.0,51,0.00,,---,0.00,798.00,VWS V14.01,2013-02-18 17:30:00,
2013-02-18 12:40:00,66.8,48.0,30.33,WSW,257,8.0,9.0,52,0.00,,,0.00,325,weatherlink.com 1.10,2013-02-18 17:40:00,
2013-02-18 12:54:00,65.9,49.0,30.32,WNW,295,4.0,12.0,55,0.00,,,0.00,323,weatherlink.com 1.10,2013-02-18 17:54:00,
2013-02-18 13:00:00,65.9,49.8,30.32,West,270,5.0,12.0,56,0.00,,---,0.00,384.00,VWS V14.01,2013-02-18 18:00:00,
2013-02-18 13:09:00,66.3,50.0,30.32,WNW,285,5.0,9.0,56,0.00,,,0.00,401,weatherlink.com 1.10,2013-02-18 18:09:00,
2013-02-18 13:24:00,67.6,50.0,30.31,West,265,6.0,10.0,54,0.00,,,0.00,900,weatherlink.com 1.10,2013-02-18 18:24:00,
2013-02-18 13:30:00,68.0,49.7,30.31,West,270,5.0,10.0,52,0.00,,---,0.00,477.00,VWS V14.01,2013-02-18 18:30:00,
2013-02-18 13:40:00,68.8,50.0,30.30,West,281,4.0,10.0,51,0.00,,,0.00,424,weatherlink.com 1.10,2013-02-18 18:40:00,
2013-02-18 13:55:00,66.7,48.0,30.29,WSW,254,6.0,11.0,52,0.00,,,0.00,339,weatherlink.com 1.10,2013-02-18 18:55:00,
2013-02-18 14:00:00,66.5,48.9,30.29,WSW,248,5.0,12.0,53,0.00,,---,0.00,542.00,VWS V14.01,2013-02-18 19:00:00,
2013-02-18 14:10:00,67.0,50.0,30.28,WSW,258,6.0,10.0,54,0.00,,,0.00,464,weatherlink.com 1.10,2013-02-18 19:10:00,
2013-02-18 14:25:00,66.8,49.0,30.28,WSW,237,5.0,12.0,53,0.00,,,0.00,411,weatherlink.com 1.10,2013-02-18 19:25:00,
2013-02-18 14:30:00,67.2,49.5,30.28,WSW,248,7.0,12.0,53,0.00,,---,0.00,473.00,VWS V14.01,2013-02-18 19:30:00,
2013-02-18 14:41:00,66.3,50.0,30.28,WSW,256,5.0,10.0,56,0.00,,,0.00,278,weatherlink.com 1.10,2013-02-18 19:41:00,
2013-02-18 14:55:00,67.5,51.0,30.28,West,267,6.0,9.0,56,0.00,,,0.00,687,weatherlink.com 1.10,2013-02-18 19:55:00,
2013-02-18 15:00:00,67.5,50.8,30.28,WSW,248,6.0,15.0,55,0.00,,---,0.00,368.00,VWS V14.01,2013-02-18 20:00:00,
2013-02-18 15:10:00,67.8,51.0,30.28,West,272,5.0,11.0,55,0.00,,,0.00,390,weatherlink.com 1.10,2013-02-18 20:10:00,
2013-02-18 15:25:00,68.5,52.0,30.27,WSW,239,4.0,9.0,55,0.00,,,0.00,269,weatherlink.com 1.10,2013-02-18 20:25:00,
2013-02-18 15:30:00,68.0,51.7,30.27,West,270,5.0,11.0,56,0.00,,---,0.00,420.00,VWS V14.01,2013-02-18 20:30:00,
2013-02-18 15:40:00,68.1,51.0,30.27,West,261,5.0,10.0,54,0.00,,,0.00,274,weatherlink.com 1.10,2013-02-18 20:40:00,
2013-02-18 15:55:00,65.8,50.0,30.27,West,277,3.0,10.0,57,0.00,,,0.00,125,weatherlink.com 1.10,2013-02-18 20:55:00,
2013-02-18 16:00:00,65.7,50.5,30.27,West,270,6.0,12.0,58,0.00,,---,0.00,237.00,VWS V14.01,2013-02-18 21:00:00,
2013-02-18 16:10:00,65.6,50.0,30.27,SE,124,5.0,12.0,57,0.00,,,0.00,169,weatherlink.com 1.10,2013-02-18 21:10:00,
2013-02-18 16:25:00,65.6,50.0,30.26,SE,140,5.0,13.0,58,0.00,,,0.00,171,weatherlink.com 1.10,2013-02-18 21:25:00,
2013-02-18 16:30:00,65.6,50.9,30.26,SE,135,7.0,13.0,59,0.00,,---,0.00,162.00,VWS V14.01,2013-02-18 21:30:00,
2013-02-18 16:40:00,65.2,51.0,30.26,East,98,13.0,19.0,61,0.00,,,0.00,100,weatherlink.com 1.10,2013-02-18 21:40:00,
2013-02-18 16:55:00,65.0,51.0,30.27,ESE,103,7.0,14.0,60,0.00,,,0.00,83,weatherlink.com 1.10,2013-02-18 21:55:00,
2013-02-18 17:00:00,65.0,51.2,30.27,SE,135,8.0,19.0,61,0.00,,---,0.00,98.00,VWS V14.01,2013-02-18 22:00:00,
2013-02-18 17:10:00,65.0,49.0,30.27,SE,143,5.0,14.0,57,0.00,,,0.00,81,weatherlink.com 1.10,2013-02-18 22:10:00,
2013-02-18 17:25:00,65.1,50.0,30.28,SSE,154,8.0,10.0,59,0.00,,,0.00,42,weatherlink.com 1.10,2013-02-18 22:25:00,
2013-02-18 17:30:00,65.1,50.0,30.27,SE,135,6.0,14.0,58,0.00,,---,0.00,67.00,VWS V14.01,2013-02-18 22:30:00,
2013-02-18 17:40:00,65.0,49.0,30.27,SE,128,8.0,15.0,56,0.00,,,0.00,32,weatherlink.com 1.10,2013-02-18 22:40:00,
2013-02-18 17:52:00,64.9,49.8,30.27,SE,140,8.0,8.0,58,0.00,,---,0.00,16.00,VWS V14.01,2013-02-18 22:52:00,
2013-02-18 18:00:00,64.8,48.3,30.27,SE,135,9.0,17.0,55,0.00,,---,0.00,25.00,VWS V14.01,2013-02-18 23:00:00,
2013-02-18 18:11:00,64.8,48.0,30.27,SE,137,9.0,17.0,55,0.00,,,0.00,5,weatherlink.com 1.10,2013-02-18 23:11:00,
2013-02-18 18:26:00,64.6,48.0,30.27,SE,141,9.0,17.0,55,0.00,,,0.00,0,weatherlink.com 1.10,2013-02-18 23:26:00,
2013-02-18 18:30:00,64.5,49.0,30.27,SE,135,10.0,17.0,57,0.00,,---,0.00,4.00,VWS V14.01,2013-02-18 23:30:00,
2013-02-18 18:41:00,64.3,49.0,30.27,East,93,5.0,16.0,57,0.00,,,0.00,0,weatherlink.com 1.10,2013-02-18 23:41:00,
2013-02-18 18:56:00,64.5,49.0,30.27,ESE,113,4.0,14.0,58,0.00,,,0.00,0,weatherlink.com 1.10,2013-02-18 23:56:00,
2013-02-18 19:00:00,64.4,49.8,30.27,SE,135,6.0,16.0,59,0.00,,---,0.00,0.00,VWS V14.01,2013-02-19 00:00:00,
2013-02-18 19:11:00,64.3,50.0,30.26,SE,136,4.0,10.0,60,0.00,,,0.00,0,weatherlink.com 1.10,2013-02-19 00:11:00,
2013-02-18 19:26:00,64.3,50.0,30.26,SE,130,4.0,8.0,60,0.00,,,0.00,0,weatherlink.com 1.10,2013-02-19 00:26:00,
2013-02-18 19:30:00,64.3,49.2,30.26,SE,135,5.0,10.0,58,0.00,,---,0.00,0.00,VWS V14.01,2013-02-19 00:30:00,
2013-02-18 19:41:00,64.4,49.0,30.26,South,177,3.0,9.0,57,0.00,,,0.00,0,weatherlink.com 1.10,2013-02-19 00:41:00,
2013-02-18 19:56:00,64.4,50.0,30.25,SE,142,7.0,9.0,60,0.00,,,0.00,0,weatherlink.com 1.10,2013-02-19 00:56:00,
2013-02-18 20:00:00,64.4,49.8,30.25,SE,135,5.0,11.0,59,0.00,,---,0.00,0.00,VWS V14.01,2013-02-19 01:00:00,
2013-02-18 20:11:00,64.5,49.0,30.25,ESE,123,3.0,9.0,58,0.00,,,0.00,0,weatherlink.com 1.10,2013-02-19 01:11:00,
2013-02-18 20:26:00,64.9,50.0,30.25,SE,128,5.0,12.0,58,0.00,,,0.00,0,weatherlink.com 1.10,2013-02-19 01:26:00,
2013-02-18 20:30:00,65.0,49.9,30.25,SE,135,5.0,14.0,58,0.00,,---,0.00,0.00,VWS V14.01,2013-02-19 01:30:00,
2013-02-18 20:41:00,65.0,50.0,30.26,East,101,6.0,11.0,58,0.00,,,0.00,0,weatherlink.com 1.10,2013-02-19 01:41:00,
2013-02-18 20:56:00,64.8,49.0,30.25,SE,132,5.0,12.0,56,0.00,,,0.00,0,weatherlink.com 1.10,2013-02-19 01:56:00,
2013-02-18 21:00:00,64.9,50.2,30.25,SE,135,6.0,13.0,59,0.00,,---,0.00,0.00,VWS V14.01,2013-02-19 02:00:00,
2013-02-18 21:11:00,64.9,49.0,30.25,SE,136,4.0,10.0,56,0.00,,,0.00,0,weatherlink.com 1.10,2013-02-19 02:11:00,
2013-02-18 21:26:00,64.9,51.0,30.25,SE,141,5.0,9.0,60,0.00,,,0.00,0,weatherlink.com 1.10,2013-02-19 02:26:00,
2013-02-18 21:30:00,64.8,51.0,30.25,SE,135,5.0,10.0,61,0.00,,---,0.00,0.00,VWS V14.01,2013-02-19 02:30:00,
2013-02-18 21:41:00,64.6,50.0,30.25,SE,126,1.0,7.0,60,0.00,,,0.00,0,weatherlink.com 1.10,2013-02-19 02:41:00,
2013-02-18 21:56:00,62.1,50.0,30.25,SSE,154,1.0,2.0,65,0.00,,,0.00,0,weatherlink.com 1.10,2013-02-19 02:56:00,
2013-02-18 22:00:00,61.7,50.2,30.25,SSE,158,2.0,8.0,66,0.00,,---,0.00,0.00,VWS V14.01,2013-02-19 03:00:00,
2013-02-18 22:11:00,60.9,50.0,30.25,WNW,294,1.0,4.0,68,0.00,,,0.00,0,weatherlink.com 1.10,2013-02-19 03:11:00,
2013-02-18 22:26:00,64.5,51.0,30.25,ESE,103,7.0,11.0,62,0.00,,,0.00,0,weatherlink.com 1.10,2013-02-19 03:26:00,
2013-02-18 22:30:00,64.9,50.2,30.25,SSE,158,3.0,11.0,59,0.00,,---,0.00,0.00,VWS V14.01,2013-02-19 03:30:00,
2013-02-18 22:41:00,65.6,50.0,30.24,SSE,155,4.0,13.0,58,0.00,,,0.00,0,weatherlink.com 1.10,2013-02-19 03:41:00,
2013-02-18 22:56:00,65.7,52.0,30.24,ESE,121,10.0,14.0,61,0.00,,,0.00,0,weatherlink.com 1.10,2013-02-19 03:56:00,
2013-02-18 23:00:00,65.8,52.4,30.25,SE,135,8.0,14.0,62,0.00,,---,0.00,0.00,VWS V14.01,2013-02-19 04:00:00,
2013-02-18 23:11:00,65.9,52.0,30.24,SSE,160,6.0,13.0,61,0.00,,,0.00,0,weatherlink.com 1.10,2013-02-19 04:11:00,
2013-02-18 23:26:00,65.8,51.0,30.23,SE,146,5.0,13.0,59,0.00,,,0.00,0,weatherlink.com 1.10,2013-02-19 04:26:00,
2013-02-18 23:30:00,65.8,52.0,30.23,SE,135,7.0,14.0,61,0.00,,---,0.00,0.00,VWS V14.01,2013-02-19 04:30:00,
2013-02-18 23:41:00,65.9,54.0,30.23,SE,138,5.0,11.0,66,0.00,,,0.00,0,weatherlink.com 1.10,2013-02-19 04:41:00,
2013-02-18 23:56:00,65.9,54.0,30.23,SSE,159,8.0,16.0,65,0.00,,,0.00,0,weatherlink.com 1.10,2013-02-19 04:56:00,